DMSP 5D-2 F8 DEB, 60252

Orbit data source: Space-Track

DMSP 5D-2 F8 DEB, 60252 is space debris in SSO originally from a launch on Sat, 20 Jun 1987 UTC launched from the Air Force Western Test Range (AFWTR). Debris objects in space refer to the collection of defunct objects orbiting the Earth. Examples of debris include non-operational satellites, rocket bodies, and fragments generated from explosions, collisions, or faulty payload assembly.

Loading next visibility...
Identifier
60252, 1987-053K
Orbit
SSO
Country
Flag of USUS
Related business
Manufacturer
Unknown
Mission
Spacecraft
Bus & Motor
Unknown
Mass
Unknown
Launch date (UTC)
Icon of a cake. It is the launch day of the satellite!1987-06-20 (39 years ago)
Launch vehicle
Unknown
Launch site
Air Force Western Test Range (AFWTR)
Object type
Payload
Rocket body
Debris
Shape & HBR
Box + 1 Pan, 0.5 m
Radar Cross Section
11.475 m², Medium (>0.1 m² and < 1m²)

Expand to show TLE details & history
Last TLE update: 10 hours ago

TLE from 10 hours ago
0 DMSP 5D-2 F8 DEB
1 60252U 87053K   26171.41428741  .00001039  00000-0  46266-3 0  9996
2 60252  98.7255   1.4910 0020702 119.4419 240.8829 14.24901230 99599
Epoch: 2026-06-20T09:56Z
TLE epoch observation values (Epoch: 2026-06-20T09:56:34.432Z)
Latitude
-0.00004°
Longitude
-56.28171°
Altitude
819.01 km
Speed
7.44 km/s
True Right ascension
00h 05m 57s
True Declination
0° 00' 00"
Sunlit
Object was in daylight at epoch
Visualization orbit readout
Latitude
Unknown
Longitude
Unknown
Altitude
Unknown
Speed
Unknown
Apparent Right ascension
Unknown
Apparent Declination
Unknown
Sunlit
N/A
Visualization observer readout
Local Sidereal Time
07:16:36
Azimuth
Unknown
Elevation
Unknown
Doppler factor
Unknown
Orbital elements
Apogee altitude
820.85 km
Perigee altitude
791.105 km
Semi-major axis
7,184.115 km
Eccentricity
0.00207
Inclination
98.7255°
RAAN
1.491°
Arg. of periapsis
119.4419°
True anomaly
240.67591°
Mean anomaly
240.8829°
Eccentric anomaly
240.77938°
Mean motion
3.56437 °/min
Orbital period
101 mins
BSTAR
0.00046266
Loading maneuver chart data...
Computing Atmospheric mass density...
Loading historical data...
Loading historical data...
Loading historical data...
Loading historical data...
Loading historical data...
Loading historical data...
Loading historical data...

Documentation

Showing up to 5 results
|